Date String (YYYY-MM-DD hh:mm:ss) UTC,Instrument flags,absolute air pressure of the measurement (hPa),sample flow rate (lpm),inlet stack bypass flow (lpm),air temperature of the measurement (°C),ambient temperature measured by the external sensor (°C),aerosol sample conditioner tube jacket temperature (°C),OPC LED temperature (°C),internal box temperature (°C),relative humidity of the measurement (%),span deviation,mass concentration of particles derived from Lorenz-Mie calculation of OPC scattering (μg/m³),mass concentration of particles derived from Lorenz-Mie calculation of OPC scattering (μg/m³),mass concentration of particles derived from Lorenz-Mie calculation of OPC scattering (μg/m³)
DateTimeUTC,F1_M11,P_M11,Q1_M11,Q2_M11,T1_M11,T2_M11,T3_M11,T4_M11,T5_M11,U1_M11,ZSPAN_M11,X2_M11,X0_M11,X1_M11
2024-01-04 12:00:00,SystemResetWarning,0824.3,5.00,000.00,020.2,019.5,000.0,028.6,021.5,13.8,0000.0,0005.61,0012.85,0005.08
2024-01-04 12:01:00,SystemResetWarning,0824.3,5.00,000.00,020.2,019.5,000.0,028.6,021.5,13.8,0000.0,0005.59,0012.57,0005.06
2024-01-04 12:02:00,SystemResetWarning,0824.2,5.00,000.00,020.2,019.5,000.0,028.6,021.5,13.8,0000.0,0005.52,0012.21,0005.05
2024-01-04 12:03:00,SystemResetWarning,0824.3,5.00,000.00,020.2,019.5,000.0,028.6,021.5,13.8,0000.0,0005.52,0011.38,0005.05
2024-01-04 12:04:00,SystemResetWarning,0824.3,4.99,000.00,020.2,019.5,000.0,028.6,021.5,13.8,0001.0,0005.50,0011.39,0005.02
2024-01-04 12:05:00,SystemResetWarning,0824.3,5.00,000.00,020.2,019.5,000.0,028.6,021.5,13.8,0003.0,0005.50,0011.20,0005.02
2024-01-04 12:06:00,SystemResetWarning,0824.3,5.00,000.00,020.2,019.5,000.0,028.6,021.5,13.8,0002.8,0005.54,0011.10,0005.02
2024-01-04 12:07:00,SystemResetWarning,0824.3,5.00,000.00,020.2,019.5,000.0,028.6,021.6,13.8,0002.7,0005.57,0011.23,0005.03
2024-01-04 12:08:00,SystemResetWarning,0824.3,5.00,000.00,020.2,019.5,000.0,028.6,021.5,13.8,0002.9,0005.59,0011.63,0005.05
2024-01-04 12:09:00,SystemResetWarning,0824.2,5.00,000.00,020.2,019.5,000.0,028.6,021.5,13.8,0001.4,0005.61,0010.66,0005.05
2024-01-04 12:10:00,SystemResetWarning,0824.3,5.00,000.00,020.2,019.5,000.0,028.6,021.6,13.8,0000.0,0005.62,0010.29,0005.05
2024-01-04 12:11:00,SystemResetWarning,0824.3,5.00,000.00,020.2,019.5,000.0,028.6,021.6,13.8,0000.0,0005.62,0009.66,0005.05
2024-01-04 12:12:00,SystemResetWarning,0824.3,5.00,000.00,020.2,019.5,000.0,028.6,021.5,13.8,0000.6,0005.62,0009.57,0005.05
2024-01-04 12:13:00,SystemResetWarning,0824.3,5.00,000.00,020.2,019.5,000.0,028.6,021.5,13.8,0000.9,0005.63,0009.64,0005.07
2024-01-04 12:14:00,SystemResetWarning,0824.3,5.00,000.00,020.2,019.5,000.0,028.6,021.5,13.8,0000.2,0005.61,0009.89,0005.07
2024-01-04 12:15:00,SystemResetWarning,0824.3,4.99,000.00,020.2,019.5,000.0,028.6,021.5,13.8,0000.0,0005.60,0010.17,0005.06
2024-01-04 12:16:00,SystemResetWarning,0824.3,5.00,000.00,020.2,019.5,000.0,028.6,021.6,13.8,0000.0,0005.60,0010.74,0005.06
2024-01-04 12:17:00,SystemResetWarning,0824.3,5.00,000.00,020.2,019.5,000.0,028.6,021.5,13.8,0000.0,0005.59,0011.36,0005.06
2024-01-04 12:18:00,SystemResetWarning,0824.4,5.00,000.00,020.2,019.5,000.0,028.6,021.5,13.8,0000.0,0005.59,0011.34,0005.06
2024-01-04 12:19:00,SystemResetWarning,0824.4,5.00,000.00,020.2,019.5,000.0,028.6,021.6,13.8,0000.0,0005.62,0010.96,0005.05
2024-01-04 12:20:00,SystemResetWarning,0824.4,5.00,000.00,020.2,019.5,000.0,028.6,021.5,13.8,0000.0,0005.67,0011.09,0005.05
2024-01-04 12:21:00,SystemResetWarning,0824.3,5.00,000.00,020.2,019.5,000.0,028.6,021.5,13.8,0000.0,0005.68,0011.11,0005.05
2024-01-04 12:22:00,SystemResetWarning,0824.4,5.00,000.00,020.2,019.5,000.0,028.6,021.5,13.8,0000.0,0005.66,0011.01,0005.06
2024-01-04 12:23:00,SystemResetWarning,0824.4,5.00,000.00,020.2,019.5,000.0,028.6,021.5,13.8,0000.0,0005.66,0010.94,0005.06
2024-01-04 12:24:00,SystemResetWarning,0824.4,5.00,000.00,020.2,019.4,000.0,028.6,021.5,13.8,0000.0,0005.66,0010.96,0005.07
2024-01-04 12:25:00,SystemResetWarning,0824.3,5.00,000.00,020.2,019.4,000.0,028.5,021.4,13.8,0000.0,0005.69,0010.78,0005.08
2024-01-04 12:26:00,SystemResetWarning,0824.4,5.00,000.00,020.2,019.4,000.0,028.5,021.4,13.8,0000.0,0005.73,0011.25,0005.09
2024-01-04 12:27:00,SystemResetWarning,0824.4,5.01,000.00,020.2,019.4,000.0,028.5,021.4,13.8,0000.0,0005.74,0010.73,0005.10
2024-01-04 12:28:00,SystemResetWarning,0824.4,5.01,000.00,020.1,019.4,000.0,028.5,021.4,13.8,0000.0,0005.72,0009.96,0005.10
2024-01-04 12:29:00,SystemResetWarning,0824.4,5.01,000.00,020.1,019.4,000.0,028.5,021.4,13.9,0000.0,0005.73,0009.97,0005.11
2024-01-04 12:30:00,SystemResetWarning,0824.3,5.01,000.00,020.1,019.4,000.0,028.5,021.4,13.9,0000.0,0005.72,0010.34,0005.12
2024-01-04 12:31:00,SystemResetWarning,0824.4,5.00,000.00,020.1,019.4,000.0,028.5,021.3,13.9,0000.3,0005.67,0010.42,0005.13
2024-01-04 12:32:00,SystemResetWarning,0824.4,4.99,000.00,020.1,019.4,000.0,028.5,021.2,13.9,0000.6,0005.67,0010.53,0005.15
2024-01-04 12:33:00,SystemResetWarning,0824.4,5.00,000.00,020.1,019.3,000.0,028.5,021.2,14.0,0000.3,0005.66,0010.96,0005.16
2024-01-04 12:34:00,SystemResetWarning,0824.4,4.99,000.00,020.1,019.3,000.0,028.5,021.2,14.0,0000.1,0005.69,0011.13,0005.16
2024-01-04 12:35:00,SystemResetWarning,0824.4,5.00,000.00,020.0,019.3,000.0,028.5,021.2,14.0,-000.4,0005.71,0011.21,0005.15
2024-01-04 12:36:00,SystemResetWarning,0824.4,5.00,000.00,020.0,019.3,000.0,028.5,021.2,14.0,-000.2,0005.71,0011.20,0005.14
2024-01-04 12:37:00,SystemResetWarning,0824.4,5.00,000.00,020.0,019.3,000.0,028.4,021.1,14.1,0000.4,0005.70,0010.89,0005.14
2024-01-04 12:38:00,SystemResetWarning,0824.3,5.00,000.00,020.0,019.2,000.0,028.4,021.1,14.1,0000.6,0005.67,0010.28,0005.14
2024-01-04 12:39:00,SystemResetWarning,0824.4,5.00,000.00,020.0,019.2,000.0,028.4,021.1,14.1,0001.7,0005.68,0010.33,0005.15
2024-01-04 12:40:00,SystemResetWarning,0824.4,5.00,000.00,020.0,019.2,000.0,028.4,021.2,14.2,0002.1,0005.67,0010.31,0005.16
2024-01-04 12:41:00,SystemResetWarning,0824.4,5.00,000.00,020.0,019.2,000.0,028.4,021.2,14.2,0001.7,0005.65,0010.29,0005.16
2024-01-04 12:42:00,SystemResetWarning,0824.4,5.00,000.00,020.0,019.1,000.0,028.4,021.2,14.2,0001.5,0005.61,0009.76,0005.15
2024-01-04 12:43:00,SystemResetWarning,0824.4,5.00,000.00,020.0,019.1,000.0,028.4,021.2,14.2,0000.0,0005.59,0009.64,0005.14
2024-01-04 12:44:00,SystemResetWarning,0824.4,5.00,000.00,020.0,019.1,000.0,028.4,021.2,14.2,0000.0,0005.59,0009.27,0005.13
2024-01-04 12:45:00,SystemResetWarning,0824.4,5.00,000.00,020.0,019.1,000.0,028.4,021.3,14.2,0000.0,0005.59,0009.09,0005.12
2024-01-04 12:46:00,SystemResetWarning,0824.4,5.00,000.00,020.0,019.1,000.0,028.4,021.2,14.2,0000.0,0005.55,0008.90,0005.12
2024-01-04 12:47:00,SystemResetWarning,0824.3,5.00,000.00,020.0,019.1,000.0,028.4,021.2,14.3,0000.0,0005.57,0009.14,0005.14
2024-01-04 12:48:00,SystemResetWarning,0824.3,5.00,000.00,020.0,019.1,000.0,028.3,021.3,14.3,0000.0,0005.55,0009.10,0005.14
2024-01-04 12:49:00,SystemResetWarning,0824.3,5.00,000.00,020.0,019.1,000.0,028.3,021.3,14.3,0000.0,0005.54,0009.08,0005.15
2024-01-04 12:50:00,SystemResetWarning,0824.3,5.00,000.00,020.0,019.1,000.0,028.3,021.3,14.3,0000.0,0005.56,0009.17,0005.16
2024-01-04 12:51:00,SystemResetWarning,0824.3,5.00,000.00,020.0,019.1,000.0,028.3,021.3,14.3,0000.0,0005.60,0009.21,0005.17
2024-01-04 12:52:00,SystemResetWarning,0824.3,5.00,000.00,020.0,019.1,000.0,028.3,021.3,14.3,0000.0,0005.63,0009.21,0005.20
2024-01-04 12:53:00,SystemResetWarning,0824.4,5.00,000.00,020.0,019.1,000.0,028.3,021.2,14.3,0000.0,0005.74,0009.21,0005.24
2024-01-04 12:54:00,SystemResetWarning,0824.3,5.00,000.00,020.0,019.2,000.0,028.3,021.3,14.3,0000.0,0005.79,0009.32,0005.28
2024-01-04 12:55:00,SystemResetWarning,0824.4,5.00,000.00,020.0,019.2,000.0,028.3,021.3,14.3,0000.1,0005.85,0009.41,0005.33
2024-01-04 12:56:00,SystemResetWarning,0824.4,5.00,000.00,020.0,019.2,000.0,028.3,021.3,14.3,0001.5,0005.90,0010.47,0005.37
2024-01-04 12:57:00,SystemResetWarning,0824.3,5.00,000.00,020.0,019.2,000.0,028.3,021.3,14.3,0001.3,0005.96,0010.88,0005.43
2024-01-04 12:58:00,SystemResetWarning,0824.3,5.00,000.00,020.0,019.2,000.0,028.3,021.3,14.3,0001.1,0006.00,0010.75,0005.49
2024-01-04 12:59:00,SystemResetWarning,0824.3,4.99,000.00,020.0,019.2,000.0,028.3,021.3,14.3,0001.2,0006.12,0011.00,0005.57
